Location: Calvera
(42.3882°N, 0.6137°E)
Time: 20:13:28
(UTC+00:00)

Cosmos 1315 Rocket - Pass Details

Date: 28 October 2020
Orbit: 530 x 567 km, 81.2° (Epoch: 22 November)

Event Time Altitude Azimuth Distance (km) Brightness Sun altitude
Rises 05:23:01 0° 353° (N) 2,763 6.3 -12.3°
Reaches altitude 10° 05:25:13 10° 356° (N) 1,867 5.4 -11.8°
Maximum altitude 05:29:20 64° 79° (E) 630 3.4 -11.1°
Drops below altitude 10° 05:33:24 10° 161° (SSE) 1,860 5.9 -10.4°
Sets 05:35:36 0° 164° (SSE) 2,752 6.7 -10.0°
